EHI
0 0 0 0 0 0 0 0 0 0 0 0 0 0 0 0 0 0 0 0 0 0 0 0 0 0 0 0 0 0 0 0 0 0 0 0 0 0 0 0 0 0 0
0 0 0 0 0 0 0 0 0 0 0 0 0 0 0 0 0 0 0 0 0 0 0 0 0 0 0 0 0 0 0 0 0 0 0 0 0 0 0 0 0 0 0
0 0 0 0 0 0 0 0 0 0 0 0 0 0 0 0 0 0 0 0 0 0 0 0 0 0 0 0 0 0 0 0 0 0 0 0 0 0 0 0 0 0 0
0 0 0 0 0 0 0 0 0 0 0 0 0 0 0 0 0 0 0 0 0 0 0 0 0 0 0 0 0 0 0 0 0 0 0 0 0 0 0 0 0 0 0
0 0 0 0 0 0 0 0 0 0 0 0 0 0 0 0 0 0 0 0 0 0 0 0 0 0 0 0 0 0 0 0 0 0 0 0 0 0 0 0 0 0 0
0 0 0 0 0 0 0 0 0 0 0 0 0 0 0 0 0 0 0 0 0 0 0 0 0 0 0 0 0 0 0 0 0 0 0 0 0 0 0 0 0 0 0
0 0 0 0 0 0 0 0 0 0 0 0 0 0 0 0 0 0 0 0 0 0 0 0 0 0 0 0 0 0 0 0 0 0 0 0 0 0 0 0 0 0 0
0 0 0 0 0 0 0 0 0 0 0 0 0 0 0 0 0 0 0 0 0 0 0 0 0 0 0 0 0 0 0 0 0 0 0 0 0 0 0 0 0 0 0
0 0 0 0 0 0 0 0 0 0 0 0 0 0 0 0 0 0 0 0 0 0 0 0 0 0 0 0 0 0 0 0 0 0 0 0 0 0 0 0 0 0 0
0 0 0 0 0 0 0 0 0 0 0 0 0 0 0 0 0 0 0 0 0 0 0 0 0 0 0 0 0 0 0 0 0 0 0 0 0 0 0 0 0 0 0
0 0 0 0 0 0 0 0 0 0 0 0 0 0 0 0 0 0 0 0 0 0 0 0 0 0 0 0 0 0 0 0 0 0 0 0 0 0 0 0 0 0 0
0 0 0 0 0 0 0 0 0 0 0 0 0 0 0 0 0 0 0 0 0 0 0 0 0 0 0 0 0 0 0 0 0 0 0 0 0 0 0 0 0 0 0
0 0 0 0 0 0 0 0 0 0 0 0 0 0 0 0 0 0 0 0 0 0 0 0 0 0 0 0 0 0 0 0 0 0 0 0 0 0 0 0 0 0 0
0 0 0 0 0 0 0 0 0 0 0 0 0 0 0 0 0 0 0 0 0 0 0 0 0 0 0 0 0 0 0 0 0 0 0 0 0 0 0 0 0 0 0
0 0 0 0 0 0 0 0 0 0 0 0 0 0 0 0 0 0 0 0 0 0 0 0 0 0 0 0 0 0 0 0 0 0 0 0 0 0 0 0 0 0 0
0 0 0 0 0 0 0 0 0 0 0 0 0 0 0 0 0 0 0 0 0 0 0 0 0 0 0 0 0 0 0 0 0 0 0 0 0 0 0 0 0 0 0
0 0 0 0 0 0 0 0 0 0 0 0 0 0 0 0 0 0 0 0 0 0 0 0 0 0 0 0 0 0 0 0 0 0 0 0 0 0 0 0 0 0 0
0 0 0 0 0 0 0 0 0 0 0 0 0 0 0 0 0 0 0 0 0 0 0 0 0 0 0 0 0 0 0 0 0 0 0 0 0 0 0 0 0 0 0
0 0 0 0 0 0 0 0 0 0 0 0 0 0 0 0 0 0 0 0 0 0 0 0 0 0 0 0 0 0 0 0 0 0 0 0 0 0 0 0 0 0 0
0 0 0 0 0 0 0 0 0 0 0 0 0 0 0 0 0 0 0 0 0 0 0 0 0 0 0 0 0 0 0 0 0 0 0 0 0 0 0 0 0 0 0
0 0 0 0 0 0 0 0 0 0 0 0 0 0 0 0 0 0 0 0 0 0 0 0 0 0 0 0 0 0 0 0 0 0 0 0 0 0 0 0 0 0 0
0 0 0 0 0 0 0 0 0 0 0 0 0 0 0 0 0 0 0 0 0 0 0 0 0 0 0 0 0 0 0 0 0 0 0 0 0 0 0 0 0 0 0
0 0 0 0 0 0 0 0 0 0 0 0 0 0 0 0 0 0 0 0 0 0 0 0 0 0 0 0 0 0 0 0 0 0 0 0 0 0 0 0 0 0 0
0 0 0 0 0 0 0 0 0 0 0 0 0 0 0 0 0 0 0 0 0 0 0 0 0 0 0 0 0 0 0 0 0 0 0 0 0 0 0 0 0 0 0
0 0 0 0 0 0 0 0 0 0 0 0 0 0 0 0 0 0 0 0 0 0 0 0 0 0 0 0 0 0 0 0 0 0 0 0 0 0 0 0 0 0 0
0 0 0 0 0 0 0 0 0 0 0 0 0 0 0 0 0 0 0 0 0 0 0 0 0 0 0 0 0 0 0 0 0 0 0 0 0 0 0 0 0 0 0
Wind_Speed
3 3 3 3 3 3 3 3 3 3 3 3 3 3 2 2 2 2 2 2 3 2 1 2 2 2 1 1 1 1 2 2 4 4 2 2 3 4 4 3 4 4 5
3 3 3 3 3 3 3 3 3 3 3 3 3 3 2 2 2 2 2 2 2 2 2 2 3 2 2 2 1 2 2 3 3 5 4 2 3 4 4 4 4 4 4
3 3 3 3 3 3 2 3 3 3 3 3 3 3 2 2 2 2 2 2 2 2 2 3 3 2 2 2 2 2 2 2 2 3 4 3 3 3 3 4 4 3 4
3 3 3 3 3 2 2 2 3 3 3 3 2 2 2 2 2 2 2 2 2 2 2 2 2 3 3 3 3 3 2 2 2 2 4 4 3 3 2 3 4 3 4
3 3 3 2 2 2 2 2 2 2 2 2 2 2 2 2 2 3 3 2 2 2 1 2 3 3 4 3 2 2 2 2 2 3 3 3 3 3 3 3 4 4 4
3 3 3 3 3 3 3 2 2 2 2 2 2 2 2 2 3 3 2 2 2 2 2 2 2 3 3 3 4 5 4 4 3 3 4 4 5 4 3 3 3 3 4
3 3 3 3 3 3 2 2 2 2 1 1 1 2 2 2 3 3 3 2 2 2 2 2 2 2 2 2 3 5 5 7 6 5 5 6 5 4 4 4 4 4 6
2 3 3 3 3 2 2 2 2 1 1 1 1 2 2 2 3 3 3 1 2 2 3 3 3 3 3 3 2 3 3 4 5 4 5 5 5 4 5 5 5 4 4
2 2 2 3 3 2 2 2 1 1 1 1 2 2 2 2 3 3 2 2 2 3 3 3 3 3 5 4 2 3 4 4 5 6 7 7 8 7 5 2 2 3 5
2 2 2 2 3 3 2 2 1 2 2 2 1 2 2 3 4 3 3 2 2 2 2 2 4 5 5 5 3 3 4 5 3 3 4 5 4 5 6 4 3 3 4
1 2 2 2 2 2 2 1 1 1 1 1 1 1 2 3 3 4 4 2 2 2 2 2 3 5 6 6 5 4 6 5 3 2 2 2 2 3 3 3 3 4 4
1 2 1 1 1 1 1 1 1 1 1 1 1 1 1 2 3 4 5 4 4 2 2 2 3 5 5 6 4 5 6 5 1 2 2 2 3 3 3 3 4 4 5
1 1 1 1 1 1 1 1 1 1 1 1 2 2 2 2 3 5 5 5 5 3 2 4 4 4 4 3 4 5 4 2 1 2 3 3 3 3 3 3 3 4 4
1 1 1 1 1 1 1 1 2 2 2 2 2 2 2 2 2 2 2 2 3 2 1 2 3 3 3 3 3 3 2 2 2 3 3 3 3 2 3 3 3 3 3
0 0 1 1 1 1 1 2 2 3 4 4 3 3 3 3 4 5 3 2 2 2 1 0 1 1 1 1 2 2 2 2 2 2 3 3 3 3 3 3 2 3 3
0 1 0 0 1 1 1 2 3 4 6 6 6 5 4 6 6 6 5 5 4 3 1 1 2 2 2 2 2 2 2 2 2 3 3 3 3 3 4 3 3 3 4
1 1 1 1 1 1 1 2 2 3 4 5 5 6 5 5 5 5 4 4 4 3 2 2 2 3 2 2 2 3 3 3 3 3 3 3 3 4 4 4 3 3 4
1 2 2 2 2 2 2 2 2 2 2 2 3 4 5 5 4 4 4 2 2 2 2 3 3 3 3 3 3 3 3 3 3 3 3 3 3 4 4 4 4 4 5
1 1 1 1 1 2 2 2 2 2 2 2 2 2 3 3 3 4 3 1 2 3 3 3 3 3 3 3 3 3 3 3 3 3 3 3 3 4 4 4 4 6 6
1 3 2 1 1 1 1 2 2 2 2 2 3 2 2 1 1 2 2 2 2 3 3 3 3 3 3 3 3 3 3 3 3 3 3 3 3 4 4 5 4 4 5
1 2 3 2 1 2 2 2 2 2 2 3 3 3 4 2 2 2 2 2 3 3 3 3 3 3 3 3 3 3 4 3 3 3 3 3 3 4 4 4 4 5 4
2 2 2 2 2 2 2 2 2 2 3 3 3 3 5 2 2 2 3 3 3 3 3 3 3 3 3 3 3 3 4 4 3 3 3 3 3 4 4 4 4 4 4
2 2 2 2 2 3 3 2 2 3 3 3 3 3 2 2 2 3 3 3 2 2 2 2 3 3 3 3 3 4 4 4 4 4 4 4 4 4 4 4 5 5 4
2 2 2 2 2 2 2 2 3 3 3 3 3 3 3 2 2 3 3 2 2 2 2 3 3 4 5 4 3 3 4 4 4 4 5 5 5 4 4 4 5 5 4
2 2 2 2 3 3 3 3 3 3 3 3 3 3 3 3 3 3 2 2 3 3 4 3 3 4 5 6 5 5 7 9 8 6 5 5 5 5 5 5 4 4 4
2 2 2 2 2 3 3 3 3 3 3 3 3 3 3 3 3 3 3 3 3 3 3 3 4 5 5 5 6 7 9 9 10 9 5 4 5 4 4 4 5 4 4
Wind_Direction
163 167 160 164 164 164 168 168 163 153 147 148 150 149 154 158 155 152 172 171 168 181 198 194 213 206 208 218 210 220 238 226 254 276 260 251 249 266 282 276 271 270 276
161 154 159 158 161 161 164 165 157 153 150 148 144 144 147 144 141 155 169 175 171 185 206 202 217 213 215 224 219 232 243 234 231 265 281 270 256 254 263 268 280 280 271
153 148 147 151 161 164 165 156 147 149 146 144 151 156 159 159 156 164 168 183 188 197 209 211 215 205 225 232 238 243 253 256 235 243 271 279 275 270 272 275 275 277 282
148 144 148 158 159 155 149 141 146 153 151 155 165 168 170 172 172 176 177 188 193 215 228 227 219 212 218 223 234 235 238 250 239 243 266 278 277 274 258 271 287 279 284
146 147 156 144 128 123 125 133 139 145 151 158 158 163 174 182 189 184 184 190 191 213 243 251 241 237 238 241 248 237 226 238 247 249 260 274 278 276 265 260 275 286 283
145 153 146 131 123 124 128 128 131 136 146 149 167 179 197 214 211 208 205 192 195 206 233 263 266 255 247 263 270 265 255 245 246 248 256 258 265 264 268 270 276 286 284
140 144 140 135 136 143 142 134 143 151 151 159 180 188 211 228 223 217 225 211 203 219 230 243 259 259 277 248 267 280 275 272 264 253 248 250 254 252 252 264 264 264 267
136 142 142 138 139 143 146 155 161 161 168 179 190 206 216 238 238 235 234 224 220 230 233 234 232 237 239 251 251 265 272 272 270 262 243 248 250 246 238 249 258 271 275
145 149 153 148 148 151 161 170 172 169 179 197 203 205 216 245 250 243 243 207 228 244 246 244 239 240 250 267 261 261 276 279 285 277 274 275 273 271 269 265 268 277 284
176 165 154 150 157 171 184 184 182 180 193 196 210 210 213 233 246 251 255 213 230 251 258 245 247 255 261 267 250 241 263 275 280 293 293 293 287 276 273 255 238 257 273
150 142 139 142 157 167 164 168 171 176 174 191 212 237 235 241 246 250 255 242 221 233 247 255 254 265 269 271 271 249 258 276 268 263 276 286 287 278 272 259 242 238 252
124 130 134 133 140 144 143 153 167 167 175 199 216 268 267 255 255 254 259 262 259 237 239 248 260 275 280 285 284 275 283 294 274 270 272 275 276 274 273 269 262 254 248
118 140 148 141 134 143 154 173 183 184 196 221 220 243 264 265 262 264 267 270 273 273 248 259 272 284 299 299 293 295 300 285 269 274 272 271 266 266 276 283 282 274 273
131 161 164 151 134 138 182 195 198 203 212 226 231 244 259 268 263 258 253 259 260 271 268 256 277 290 297 295 302 303 291 262 258 255 266 275 279 276 276 274 279 285 289
109 198 160 161 179 209 239 229 229 229 225 225 224 224 232 250 255 263 270 256 241 238 264 276 275 275 278 285 289 286 285 286 282 273 276 282 286 285 282 275 268 276 275
225 272 241 222 234 244 268 299 285 267 266 260 250 246 251 255 263 264 267 269 269 254 270 240 255 259 259 266 273 281 279 271 270 270 272 272 276 280 283 280 271 268 275
228 244 248 225 226 244 257 263 289 303 287 273 264 259 259 257 257 261 264 265 259 252 260 247 249 252 257 261 263 267 272 268 264 264 267 273 278 280 279 278 276 274 277
248 252 252 234 231 238 246 254 256 263 284 292 276 264 262 257 254 255 255 270 257 249 245 248 253 253 255 256 258 262 268 272 268 264 265 270 272 275 276 276 274 272 279
260 257 252 247 243 250 255 261 265 265 268 282 297 287 272 264 257 250 247 237 240 251 252 253 254 251 253 256 258 257 260 263 265 266 264 265 267 268 271 273 273 279 279
268 278 279 260 252 257 256 257 262 262 265 267 270 276 281 278 249 245 238 232 241 252 253 254 257 253 252 252 254 253 256 260 265 264 265 268 269 268 269 271 273 276 276
275 279 287 284 259 250 251 255 255 258 262 268 270 271 273 259 244 248 248 243 242 248 251 253 255 255 252 251 250 249 251 256 257 260 264 270 273 274 274 273 274 273 274
278 273 273 270 267 263 261 257 259 262 265 268 278 278 275 273 257 260 260 257 253 250 248 249 254 253 248 246 245 248 252 255 257 257 262 268 273 277 278 276 276 276 275
290 290 287 281 274 274 280 274 271 270 271 270 273 278 275 262 264 268 270 268 261 260 255 247 253 259 256 251 247 245 248 253 254 252 257 264 269 274 275 273 273 276 276
279 280 285 289 288 276 270 273 273 275 275 274 274 274 271 267 268 272 277 279 276 273 266 258 256 257 261 263 259 253 251 253 251 247 245 251 259 266 268 268 270 272 273
277 277 282 280 277 273 273 274 274 277 278 277 274 274 274 272 271 272 270 268 269 270 270 266 261 261 261 264 264 262 263 264 261 255 244 242 248 254 259 264 268 272 269
291 288 286 282 277 271 268 269 273 276 275 276 274 273 275 275 276 279 277 273 273 272 272 270 266 268 271 269 268 270 273 272 268 264 251 238 239 247 252 260 263 265 264